Weather History for Christchurch, New Zealand

Change the Weather History Date:

Monday, November 12, 2012

  Actual Average Record
Temperature  
Mean Temperature 48 °F -  
Max Temperature 53 °F 63 °F 78 °F (1997)
Min Temperature 44 °F 43 °F 42 °F (1996)
Degree Days  
Heating Degree Days 16    
Moisture  
Dew Point 42 °F    
Average Humidity 79    
Maximum Humidity 100    
Minimum Humidity 58    
Precipitation  
Precipitation 0.00 in - - ()
Sea Level Pressure  
Sea Level Pressure 30.08 in    
Wind  
Wind Speed 14 mph ()    
Max Wind Speed 23 mph    
Max Gust Speed -    
Visibility 6.2 miles    
Events Rain    
Averages and records for this station are not official NWS values.
T = Trace of Precipitation, MM = Missing Value Source: Averaged Metar Reports

Daily Weather History Graph

Daily Weather History Graph

Search for Another Location

Airport:

Trip Planner

Search our weather history database for the weather conditions in past years. The results will help you decide how hot, cold, wet, or windy it might be!

Date:

Astronomy

Nov. 12, 2012 Rise Set
Actual Time 5:58 AM NZDT 8:30 PM NZDT
Civil Twilight 5:26 AM NZDT 9:02 PM NZDT
Nautical Twilight 4:45 AM NZDT 9:43 PM NZDT
Astronomical Twilight 4:00 AM NZDT 10:29 PM NZDT
Moon 4:28 AM NZDT (11/12) 6:24 PM NZDT (11/12)
Length of Visible Light 15h 36m
Length of Day
14h 31m
Waning Crescent, 6% of the Moon is Illuminated
Nov 12
Waning Crescent
Nov 14
New
Nov 21
First Quarter
Nov 29
Full
Dec 7
Last Quarter

Hourly Weather History & Observations

Time (NZDT) Temp. Windchill Dew Point Humidity Pressure Visibility Wind Dir Wind Speed Gust Speed Precip Events Conditions
12:00 AM 48.2 °F - 46.4 °F 93% 29.86 in 6.2 mi SW 23.0 mph - N/A Rain Heavy Rain
1:00 AM 48.2 °F - 46.4 °F 93% 29.92 in 6.2 mi SSW 19.6 mph - N/A Rain Heavy Rain
2:00 AM 46.4 °F 39.0 °F 46.4 °F 100% 29.92 in 6.2 mi SSW 19.6 mph - N/A Rain Heavy Rain
3:00 AM 46.4 °F 38.7 °F 44.6 °F 93% 29.95 in 6.2 mi SSW 20.7 mph - N/A Rain Rain Showers
4:00 AM 46.4 °F 39.2 °F 44.6 °F 93% 29.98 in 6.2 mi SW 18.4 mph - N/A Rain Light Rain Showers
5:00 AM 44.6 °F 36.9 °F 42.8 °F 93% 30.01 in 6.2 mi SW 18.4 mph - N/A Rain Light Rain Showers
6:00 AM 44.6 °F 37.8 °F 42.8 °F 93% 30.04 in 6.2 mi SW 15.0 mph - N/A Rain Light Rain Showers
7:00 AM 44.6 °F 38.8 °F 42.8 °F 93% 30.06 in 6.2 mi SW 11.5 mph - N/A Rain Light Rain Showers
8:00 AM 44.6 °F 38.8 °F 42.8 °F 93% 30.09 in 6.2 mi SW 11.5 mph - N/A Rain Light Rain Showers
9:00 AM 48.2 °F - 41.0 °F 76% 30.09 in 6.2 mi SSW 16.1 mph - N/A   Mostly Cloudy
10:00 AM 48.2 °F - 39.2 °F 71% 30.12 in 6.2 mi SSW 17.3 mph - N/A   Mostly Cloudy
11:00 AM 50.0 °F - 41.0 °F 71% 30.12 in 6.2 mi SSW 16.1 mph - N/A   Mostly Cloudy
12:00 PM 51.8 °F - 41.0 °F 67% 30.15 in 6.2 mi SSW 18.4 mph - N/A   Mostly Cloudy
1:00 PM 53.6 °F - 41.0 °F 62% 30.12 in 6.2 mi SSW 16.1 mph - N/A   Mostly Cloudy
2:00 PM 51.8 °F - 37.4 °F 58% 30.12 in 6.2 mi South 17.3 mph - N/A   Mostly Cloudy
3:00 PM 51.8 °F - 39.2 °F 62% 30.12 in 6.2 mi SSW 17.3 mph - N/A   Mostly Cloudy
4:00 PM 51.8 °F - 41.0 °F 67% 30.12 in 6.2 mi South 12.7 mph - N/A   Mostly Cloudy
5:00 PM 51.8 °F - 44.6 °F 76% 30.12 in 6.2 mi SW 9.2 mph - N/A   Mostly Cloudy
6:00 PM 51.8 °F - 41.0 °F 67% 30.12 in 6.2 mi South 11.5 mph - N/A   Mostly Cloudy
7:00 PM 50.0 °F - 39.2 °F 66% 30.12 in 6.2 mi SSW 12.7 mph - N/A   Scattered Clouds
8:00 PM 48.2 °F - 39.2 °F 71% 30.15 in 6.2 mi SSW 10.4 mph - N/A   Scattered Clouds
9:00 PM 46.4 °F 44.3 °F 39.2 °F 76% 30.18 in 6.2 mi SW 4.6 mph - N/A   Mostly Cloudy
10:00 PM 46.4 °F 43.5 °F 41.0 °F 81% 30.18 in 6.2 mi WSW 5.8 mph - N/A   Mostly Cloudy
11:00 PM 46.4 °F 45.2 °F 41.0 °F 81% 30.18 in 6.2 mi West 3.5 mph - N/A   Mostly Cloudy